| time (UTC) | temp C | wind direction | speed KPH | gust KPH | rain 1hr cm | rain 24hr cm | rain mn cm | humidity % | barometer mb |
| 20260902104249 | 9 | 218 | 0.0 | 0.0 | 0.00 | 0.00 | 0.00 | 12 | 1015.9 |
| 20260902103749 | 10 | 218 | 0.0 | 0.0 | 0.00 | 0.00 | 0.00 | 11 | 1015.9 |
| 20260902103248 | 10 | 218 | 0.0 | 0.0 | 0.00 | 0.00 | 0.00 | 11 | 1015.9 |
| 20260902102748 | 10 | 218 | 0.0 | 0.0 | 0.00 | 0.00 | 0.00 | 12 | 1015.9 |
| 20260902101748 | 10 | 218 | 0.0 | 0.0 | 0.00 | 0.00 | 0.00 | 11 | 1015.9 |
| 20260902101249 | 10 | 218 | 0.0 | 0.0 | 0.00 | 0.00 | 0.00 | 12 | 1016.0 |
| 20260902100748 | 10 | 218 | 0.0 | 0.0 | 0.00 | 0.00 | 0.00 | 12 | 1016.0 |
| 20260902100248 | 10 | 218 | 0.0 | 0.0 | 0.00 | 0.00 | 0.00 | 12 | 1016.0 |
| 20260902095249 | 10 | 218 | 0.0 | 0.0 | 0.00 | 0.00 | 0.00 | 12 | 1016.0 |
| 20260902094248 | 10 | 218 | 0.0 | 0.0 | 0.00 | 0.00 | 0.00 | 13 | 1015.9 |
| 20260902093748 | 10 | 218 | 0.0 | 0.0 | 0.00 | 0.00 | 0.00 | 13 | 1015.9 |
| 20260902092748 | 10 | 218 | 0.0 | 0.0 | 0.00 | 0.00 | 0.00 | 12 | 1015.9 |
| 20260902091748 | 11 | 218 | 0.0 | 0.0 | 0.00 | 0.00 | 0.00 | 12 | 1015.9 |
| 20260902091248 | 11 | 218 | 0.0 | 0.0 | 0.00 | 0.00 | 0.00 | 12 | 1015.9 |
| 20260902090748 | 11 | 218 | 0.0 | 0.0 | 0.00 | 0.00 | 0.00 | 12 | 1015.9 |
| 20260902090248 | 11 | 218 | 0.0 | 0.0 | 0.00 | 0.00 | 0.00 | 13 | 1016.0 |
| 20260902085748 | 11 | 218 | 0.0 | 0.0 | 0.00 | 0.00 | 0.00 | 13 | 1016.0 |
| 20260902084748 | 11 | 218 | 0.0 | 0.0 | 0.00 | 0.00 | 0.00 | 14 | 1016.0 |
| 20260902084247 | 11 | 218 | 0.0 | 0.0 | 0.00 | 0.00 | 0.00 | 14 | 1015.9 |
| 20260902083747 | 11 | 218 | 0.0 | 0.0 | 0.00 | 0.00 | 0.00 | 13 | 1016.0 |
| 20260902083248 | 11 | 218 | 0.0 | 0.0 | 0.00 | 0.00 | 0.00 | 14 | 1016.1 |
| 20260902082748 | 11 | 218 | 0.0 | 0.0 | 0.00 | 0.00 | 0.00 | 15 | 1016.1 |
| 20260902082247 | 11 | 218 | 0.0 | 0.0 | 0.00 | 0.00 | 0.00 | 14 | 1016.2 |
| 20260902081748 | 11 | 218 | 0.0 | 0.0 | 0.00 | 0.00 | 0.00 | 14 | 1016.2 |
| 20260902081248 | 11 | 218 | 0.0 | 0.0 | 0.00 | 0.00 | 0.00 | 15 | 1016.2 |
| 20260902080748 | 11 | 218 | 0.0 | 0.0 | 0.00 | 0.00 | 0.00 | 15 | 1016.3 |
| 20260902080247 | 12 | 218 | 0.0 | 0.0 | 0.00 | 0.00 | 0.00 | 13 | 1016.3 |
| 20260902075747 | 12 | 218 | 0.0 | 0.0 | 0.00 | 0.00 | 0.00 | 13 | 1016.2 |
| 20260902075247 | 12 | 218 | 0.0 | 0.0 | 0.00 | 0.00 | 0.00 | 14 | 1016.2 |
| 20260902074747 | 12 | 218 | 0.0 | 0.0 | 0.00 | 0.00 | 0.00 | 14 | 1016.2 |
| 20260902074247 | 12 | 218 | 0.0 | 0.0 | 0.00 | 0.00 | 0.00 | 15 | 1016.2 |
| 20260902073747 | 12 | 218 | 0.0 | 0.0 | 0.00 | 0.00 | 0.00 | 16 | 1016.2 |
| 20260902073247 | 12 | 218 | 0.0 | 0.0 | 0.00 | 0.00 | 0.00 | 17 | 1016.3 |
| 20260902072747 | 12 | 218 | 0.0 | 0.0 | 0.00 | 0.00 | 0.00 | 17 | 1016.2 |
| 20260902072247 | 12 | 218 | 0.0 | 0.0 | 0.00 | 0.00 | 0.00 | 18 | 1016.2 |
| 20260902071747 | 12 | 218 | 0.0 | 0.0 | 0.00 | 0.00 | 0.00 | 18 | 1016.2 |
| 20260902071247 | 12 | 218 | 0.0 | 0.0 | 0.00 | 0.00 | 0.00 | 18 | 1016.0 |
| 20260902070247 | 13 | 218 | 0.0 | 0.0 | 0.00 | 0.00 | 0.00 | 19 | 1016.2 |
| 20260902065746 | 13 | 218 | 0.0 | 0.0 | 0.00 | 0.00 | 0.00 | 19 | 1016.2 |
| 20260902065247 | 13 | 218 | 0.0 | 0.0 | 0.00 | 0.00 | 0.00 | 20 | 1016.2 |
| 20260902064747 | 13 | 218 | 0.0 | 0.0 | 0.00 | 0.00 | 0.00 | 20 | 1016.2 |
| 20260902063746 | 13 | 218 | 0.0 | 0.0 | 0.00 | 0.00 | 0.00 | 21 | 1016.3 |
| 20260902063246 | 13 | 218 | 0.0 | 0.0 | 0.00 | 0.00 | 0.00 | 20 | 1016.2 |
| 20260902062746 | 13 | 218 | 0.0 | 0.0 | 0.00 | 0.00 | 0.00 | 21 | 1016.2 |
| 20260902062246 | 13 | 218 | 0.0 | 0.0 | 0.00 | 0.00 | 0.00 | 22 | 1016.2 |
| 20260902061746 | 14 | 218 | 0.0 | 0.0 | 0.00 | 0.00 | 0.00 | 22 | 1016.2 |
| 20260902060746 | 14 | 218 | 0.0 | 0.0 | 0.00 | 0.00 | 0.00 | 23 | 1016.3 |
| 20260902060246 | 14 | 218 | 0.0 | 0.0 | 0.00 | 0.00 | 0.00 | 24 | 1016.2 |
| 20260902055746 | 15 | 218 | 0.0 | 0.0 | 0.00 | 0.00 | 0.00 | 24 | 1016.1 |
| 20260902055246 | 15 | 218 | 0.0 | 0.0 | 0.00 | 0.00 | 0.00 | 24 | 1016.1 |
| 20260902054746 | 15 | 218 | 0.0 | 0.0 | 0.00 | 0.00 | 0.00 | 24 | 1016.1 |
| 20260902054246 | 15 | 218 | 0.0 | 0.0 | 0.00 | 0.00 | 0.00 | 25 | 1016.1 |
| 20260902053745 | 15 | 218 | 0.0 | 0.0 | 0.00 | 0.00 | 0.00 | 25 | 1016.2 |
| 20260902053245 | 15 | 218 | 0.0 | 0.0 | 0.00 | 0.00 | 0.00 | 25 | 1016.3 |
| 20260902052246 | 15 | 218 | 0.0 | 0.0 | 0.00 | 0.00 | 0.00 | 26 | 1016.2 |
| 20260902051746 | 15 | 218 | 0.0 | 0.0 | 0.00 | 0.00 | 0.00 | 26 | 1016.2 |
| 20260902051245 | 16 | 218 | 0.0 | 0.0 | 0.00 | 0.00 | 0.00 | 26 | 1016.2 |
| 20260902050746 | 16 | 218 | 0.0 | 0.0 | 0.00 | 0.00 | 0.00 | 26 | 1016.1 |
| 20260902050245 | 16 | 218 | 0.0 | 0.0 | 0.00 | 0.00 | 0.00 | 27 | 1016.1 |
| 20260902045746 | 16 | 218 | 0.0 | 0.0 | 0.00 | 0.00 | 0.00 | 27 | 1016.0 |
| 20260902045246 | 16 | 218 | 0.0 | 0.0 | 0.00 | 0.00 | 0.00 | 27 | 1015.9 |
| 20260902044745 | 16 | 218 | 0.0 | 0.0 | 0.00 | 0.00 | 0.00 | 28 | 1015.8 |
| 20260902044245 | 16 | 218 | 0.0 | 0.0 | 0.00 | 0.00 | 0.00 | 29 | 1015.7 |
| 20260902043745 | 16 | 218 | 0.0 | 0.0 | 0.00 | 0.00 | 0.00 | 29 | 1015.8 |
| 20260902042745 | 16 | 218 | 0.0 | 0.0 | 0.00 | 0.00 | 0.00 | 31 | 1015.6 |
| 20260902042245 | 16 | 218 | 0.0 | 0.0 | 0.00 | 0.00 | 0.00 | 31 | 1015.6 |
| 20260902041745 | 16 | 218 | 0.0 | 0.0 | 0.00 | 0.00 | 0.00 | 32 | 1015.5 |
| 20260902041244 | 16 | 218 | 0.0 | 0.0 | 0.00 | 0.00 | 0.00 | 32 | 1015.6 |
| 20260902040744 | 17 | 218 | 0.0 | 0.0 | 0.00 | 0.00 | 0.00 | 33 | 1015.6 |
| 20260902040245 | 17 | 218 | 0.0 | 0.0 | 0.00 | 0.00 | 0.00 | 33 | 1015.6 |
| 20260902035745 | 17 | 218 | 0.0 | 0.0 | 0.00 | 0.00 | 0.00 | 34 | 1015.4 |
| 20260902034744 | 17 | 218 | 0.0 | 0.0 | 0.00 | 0.00 | 0.00 | 35 | 1015.3 |
| 20260902034245 | 17 | 218 | 0.0 | 0.0 | 0.00 | 0.00 | 0.00 | 36 | 1015.4 |
| 20260902033744 | 17 | 218 | 0.0 | 0.0 | 0.00 | 0.00 | 0.00 | 37 | 1015.3 |
| 20260902032744 | 17 | 218 | 0.0 | 0.0 | 0.00 | 0.00 | 0.00 | 40 | 1015.3 |
| 20260902032244 | 18 | 218 | 0.0 | 0.0 | 0.00 | 0.00 | 0.00 | 41 | 1015.2 |
| 20260902031744 | 18 | 218 | 0.0 | 0.0 | 0.00 | 0.00 | 0.00 | 42 | 1015.1 |
| 20260902031244 | 18 | 218 | 0.0 | 0.0 | 0.00 | 0.00 | 0.00 | 43 | 1015.1 |
| 20260902030744 | 18 | 218 | 0.0 | 0.0 | 0.00 | 0.00 | 0.00 | 44 | 1015.0 |
| 20260902025244 | 18 | 218 | 0.0 | 0.0 | 0.00 | 0.00 | 0.00 | 46 | 1014.9 |
| 20260902024744 | 18 | 218 | 0.0 | 0.0 | 0.00 | 0.00 | 0.00 | 47 | 1014.7 |
| 20260902024244 | 18 | 218 | 0.0 | 0.0 | 0.00 | 0.00 | 0.00 | 47 | 1014.7 |
| 20260902023744 | 19 | 218 | 0.0 | 0.0 | 0.00 | 0.00 | 0.00 | 47 | 1014.7 |
| 20260902023244 | 19 | 218 | 0.0 | 0.0 | 0.00 | 0.00 | 0.00 | 47 | 1014.6 |
| 20260902022744 | 20 | 218 | 0.0 | 0.0 | 0.00 | 0.00 | 0.00 | 47 | 1014.6 |
| 20260902022244 | 20 | 218 | 0.0 | 0.0 | 0.00 | 0.00 | 0.00 | 47 | 1014.6 |
| 20260902021743 | 20 | 218 | 0.0 | 0.0 | 0.00 | 0.00 | 0.00 | 47 | 1014.7 |
| 20260902021243 | 20 | 218 | 0.0 | 0.0 | 0.00 | 0.00 | 0.00 | 47 | 1014.6 |
| 20260902020744 | 20 | 218 | 0.0 | 0.0 | 0.00 | 0.00 | 0.00 | 47 | 1014.6 |
| 20260902020243 | 21 | 218 | 0.0 | 0.0 | 0.00 | 0.00 | 0.00 | 47 | 1014.5 |
| 20260902015743 | 21 | 218 | 0.0 | 0.0 | 0.00 | 0.00 | 0.00 | 47 | 1014.4 |
| 20260902015243 | 21 | 218 | 0.0 | 0.0 | 0.00 | 0.00 | 0.00 | 47 | 1014.2 |
| 20260902014743 | 21 | 218 | 0.0 | 0.0 | 0.00 | 0.00 | 0.00 | 48 | 1014.3 |
| 20260902014243 | 21 | 218 | 0.0 | 0.0 | 0.00 | 0.00 | 0.00 | 48 | 1014.2 |
| 20260902013743 | 21 | 218 | 0.0 | 0.0 | 0.00 | 0.00 | 0.00 | 48 | 1014.2 |
| 20260902013243 | 21 | 218 | 0.0 | 0.0 | 0.00 | 0.00 | 0.00 | 48 | 1014.2 |
| 20260902012743 | 21 | 218 | 0.0 | 0.0 | 0.00 | 0.00 | 0.00 | 48 | 1014.1 |
| 20260902012243 | 22 | 218 | 0.0 | 0.0 | 0.00 | 0.00 | 0.00 | 47 | 1014.1 |
| 20260902011743 | 22 | 218 | 0.0 | 0.0 | 0.00 | 0.00 | 0.00 | 47 | 1014.1 |
| 20260902011243 | 22 | 218 | 0.0 | 0.0 | 0.00 | 0.00 | 0.00 | 47 | 1014.0 |
| 20260902010742 | 23 | 218 | 0.0 | 0.0 | 0.00 | 0.00 | 0.00 | 46 | 1014.1 |
| 20260902010243 | 23 | 218 | 0.0 | 0.0 | 0.00 | 0.00 | 0.00 | 46 | 1014.0 |
| 20260902005742 | 23 | 218 | 0.0 | 0.0 | 0.00 | 0.00 | 0.00 | 45 | 1014.0 |
| 20260902005243 | 24 | 218 | 0.0 | 0.0 | 0.00 | 0.00 | 0.00 | 45 | 1013.9 |
| 20260902004742 | 24 | 218 | 0.0 | 0.0 | 0.00 | 0.00 | 0.00 | 44 | 1014.1 |
| 20260902004243 | 25 | 218 | 0.0 | 0.0 | 0.00 | 0.00 | 0.00 | 43 | 1014.0 |
| 20260902003742 | 25 | 218 | 0.0 | 0.0 | 0.00 | 0.00 | 0.00 | 43 | 1013.9 |
| 20260902003243 | 25 | 218 | 0.0 | 0.0 | 0.00 | 0.00 | 0.00 | 42 | 1013.9 |
| 20260902002743 | 26 | 218 | 0.0 | 0.0 | 0.00 | 0.00 | 0.00 | 42 | 1013.9 |
| 20260902002242 | 26 | 218 | 0.0 | 0.0 | 0.00 | 0.00 | 0.00 | 41 | 1013.9 |
| 20260902001242 | 26 | 218 | 0.0 | 0.0 | 0.00 | 0.00 | 0.00 | 41 | 1013.9 |
| 20260902000742 | 26 | 218 | 0.0 | 0.0 | 0.00 | 0.00 | 0.00 | 41 | 1013.9 |
| 20260901235742 | 26 | 218 | 0.0 | 0.0 | 0.00 | 0.00 | 0.00 | 40 | 1013.9 |
| 20260901234242 | 27 | 218 | 0.0 | 0.0 | 0.00 | 0.00 | 0.00 | 40 | 1014.1 |
| 20260901233742 | 27 | 218 | 0.0 | 0.0 | 0.00 | 0.00 | 0.00 | 40 | 1014.1 |
| 20260901233242 | 27 | 218 | 0.0 | 0.0 | 0.00 | 0.00 | 0.00 | 39 | 1014.1 |
| 20260901232242 | 27 | 218 | 0.0 | 0.0 | 0.00 | 0.00 | 0.00 | 39 | 1014.1 |
| 20260901231741 | 27 | 218 | 0.0 | 0.0 | 0.00 | 0.00 | 0.00 | 39 | 1014.1 |
| 20260901230241 | 27 | 218 | 0.0 | 0.0 | 0.00 | 0.00 | 0.00 | 39 | 1014.2 |
| 20260901225242 | 27 | 218 | 0.0 | 0.0 | 0.00 | 0.00 | 0.00 | 39 | 1014.1 |
| 20260901224242 | 27 | 218 | 0.0 | 0.0 | 0.00 | 0.00 | 0.00 | 40 | 1014.1 |
| 20260901223741 | 27 | 220 | 0.0 | 0.0 | 0.00 | 0.00 | 0.00 | 40 | 1014.3 |
| 20260901223241 | 27 | 220 | 0.0 | 0.0 | 0.00 | 0.00 | 0.00 | 39 | 1014.2 |
| 20260901222742 | 27 | 220 | 0.0 | 0.0 | 0.00 | 0.00 | 0.00 | 39 | 1014.1 |
| 20260901222241 | 28 | 220 | 0.0 | 0.0 | 0.00 | 0.00 | 0.00 | 39 | 1014.4 |
| 20260901221741 | 28 | 220 | 0.0 | 0.0 | 0.00 | 0.00 | 0.00 | 39 | 1014.2 |
| 20260901221241 | 28 | 220 | 0.0 | 0.0 | 0.00 | 0.00 | 0.00 | 39 | 1014.3 |
| 20260901220741 | 28 | 220 | 0.0 | 0.0 | 0.00 | 0.00 | 0.00 | 39 | 1014.2 |
| 20260901220241 | 28 | 220 | 0.0 | 0.0 | 0.00 | 0.00 | 0.00 | 39 | 1014.3 |
| 20260901215741 | 28 | 220 | 0.0 | 0.0 | 0.00 | 0.00 | 0.00 | 38 | 1014.3 |
| 20260901215241 | 28 | 219 | 0.0 | 0.0 | 0.00 | 0.00 | 0.00 | 39 | 1014.4 |
| 20260901214241 | 28 | 220 | 0.0 | 0.0 | 0.00 | 0.00 | 0.00 | 38 | 1014.5 |
| 20260901213740 | 28 | 220 | 0.0 | 0.0 | 0.00 | 0.00 | 0.00 | 38 | 1014.5 |
| 20260901213240 | 28 | 220 | 0.0 | 0.0 | 0.00 | 0.00 | 0.00 | 38 | 1014.6 |
| 20260901212741 | 28 | 220 | 0.0 | 0.0 | 0.00 | 0.00 | 0.00 | 38 | 1014.4 |
| 20260901212241 | 28 | 220 | 0.0 | 0.0 | 0.00 | 0.00 | 0.00 | 38 | 1014.4 |
| 20260901211241 | 28 | 219 | 0.0 | 0.0 | 0.00 | 0.00 | 0.00 | 38 | 1014.6 |
| 20260901210740 | 28 | 219 | 0.0 | 0.0 | 0.00 | 0.00 | 0.00 | 37 | 1014.5 |
| 20260901210241 | 29 | 220 | 0.0 | 0.0 | 0.00 | 0.00 | 0.00 | 37 | 1014.6 |
| 20260901205741 | 29 | 219 | 0.0 | 0.0 | 0.00 | 0.00 | 0.00 | 37 | 1014.7 |
| 20260901205240 | 29 | 220 | 0.0 | 0.0 | 0.00 | 0.00 | 0.00 | 37 | 1014.6 |
| 20260901204740 | 29 | 220 | 0.0 | 0.0 | 0.00 | 0.00 | 0.00 | 37 | 1014.5 |
| 20260901204240 | 29 | 220 | 0.0 | 0.0 | 0.00 | 0.00 | 0.00 | 37 | 1014.6 |
| 20260901203740 | 29 | 219 | 0.0 | 0.0 | 0.00 | 0.00 | 0.00 | 36 | 1014.7 |
| 20260901203240 | 29 | 219 | 0.0 | 0.0 | 0.00 | 0.00 | 0.00 | 37 | 1014.7 |
| 20260901202740 | 29 | 220 | 0.0 | 0.0 | 0.00 | 0.00 | 0.00 | 36 | 1014.6 |
| 20260901202240 | 29 | 219 | 0.0 | 0.0 | 0.00 | 0.00 | 0.00 | 36 | 1014.6 |
| 20260901201740 | 28 | 219 | 0.0 | 0.0 | 0.00 | 0.00 | 0.00 | 36 | 1014.6 |
| 20260901201240 | 28 | 220 | 0.0 | 0.0 | 0.00 | 0.00 | 0.00 | 36 | 1014.6 |
| 20260901200740 | 28 | 220 | 0.0 | 0.0 | 0.00 | 0.00 | 0.00 | 36 | 1014.6 |
| 20260901200240 | 28 | 219 | 0.0 | 0.0 | 0.00 | 0.00 | 0.00 | 35 | 1014.6 |
| 20260901195740 | 28 | 219 | 0.0 | 0.0 | 0.00 | 0.00 | 0.00 | 35 | 1014.5 |
| 20260901194740 | 27 | 220 | 0.0 | 0.0 | 0.00 | 0.00 | 0.00 | 35 | 1014.7 |
| 20260901193739 | 27 | 220 | 0.0 | 0.0 | 0.00 | 0.00 | 0.00 | 35 | 1014.9 |
| 20260901193239 | 26 | 220 | 0.0 | 0.0 | 0.00 | 0.00 | 0.00 | 35 | 1014.9 |
| 20260901192739 | 26 | 220 | 0.0 | 0.0 | 0.00 | 0.00 | 0.00 | 34 | 1014.9 |
| 20260901191239 | 26 | 220 | 0.0 | 0.0 | 0.00 | 0.00 | 0.00 | 33 | 1015.2 |
| 20260901190239 | 25 | 219 | 0.0 | 0.0 | 0.00 | 0.00 | 0.00 | 33 | 1015.5 |
| 20260901185739 | 25 | 219 | 0.0 | 0.0 | 0.00 | 0.00 | 0.00 | 32 | 1015.5 |
| 20260901185239 | 25 | 220 | 0.0 | 0.0 | 0.00 | 0.00 | 0.00 | 31 | 1015.5 |
| 20260901184739 | 25 | 220 | 0.0 | 0.0 | 0.00 | 0.00 | 0.00 | 31 | 1015.5 |
| 20260901184239 | 25 | 220 | 0.0 | 0.0 | 0.00 | 0.00 | 0.00 | 30 | 1015.4 |
| 20260901183739 | 25 | 220 | 0.0 | 0.0 | 0.00 | 0.00 | 0.00 | 29 | 1015.6 |
| 20260901183239 | 24 | 220 | 0.0 | 0.0 | 0.00 | 0.00 | 0.00 | 29 | 1015.5 |
| 20260901182739 | 24 | 219 | 0.0 | 0.0 | 0.00 | 0.00 | 0.00 | 28 | 1015.5 |
| 20260901182308 | 23 | 219 | 0.0 | 0.0 | 0.00 | 0.00 | 0.00 | 27 | 1015.5 |
| 20260901181238 | 23 | 219 | 0.0 | 0.0 | 0.00 | 0.00 | 0.00 | 26 | 1015.5 |
| 20260901180739 | 22 | 220 | 0.0 | 0.0 | 0.00 | 0.00 | 0.00 | 26 | 1015.5 |
| 20260901180308 | 22 | 220 | 0.0 | 0.0 | 0.00 | 0.00 | 0.00 | 25 | 1015.7 |
| 20260901175808 | 22 | 220 | 0.0 | 0.0 | 0.00 | 0.00 | 0.00 | 25 | 1015.6 |
| 20260901174808 | 22 | 219 | 0.0 | 0.0 | 0.00 | 0.00 | 0.00 | 24 | 1015.7 |
| 20260901173738 | 21 | 220 | 0.0 | 0.0 | 0.00 | 0.00 | 0.00 | 23 | 1015.5 |
| 20260901173308 | 21 | 219 | 0.0 | 0.0 | 0.00 | 0.00 | 0.00 | 22 | 1015.5 |
| 20260901172808 | 21 | 220 | 0.0 | 0.0 | 0.00 | 0.00 | 0.00 | 22 | 1015.5 |
| 20260901172238 | 20 | 220 | 0.0 | 0.0 | 0.00 | 0.00 | 0.00 | 21 | 1015.5 |
| 20260901171308 | 20 | 219 | 0.0 | 0.0 | 0.00 | 0.00 | 0.00 | 20 | 1015.5 |
| 20260901170808 | 20 | 219 | 0.0 | 0.0 | 0.00 | 0.00 | 0.00 | 20 | 1015.5 |
| 20260901170308 | 19 | 220 | 0.0 | 0.0 | 0.00 | 0.00 | 0.00 | 19 | 1015.6 |
| 20260901165308 | 19 | 219 | 0.0 | 0.0 | 0.00 | 0.00 | 0.00 | 18 | 1015.8 |
| 20260901164808 | 18 | 220 | 0.0 | 0.0 | 0.00 | 0.00 | 0.00 | 18 | 1015.7 |
| 20260901164307 | 18 | 220 | 0.0 | 0.0 | 0.00 | 0.00 | 0.00 | 17 | 1015.6 |
| 20260901163807 | 18 | 220 | 0.0 | 0.0 | 0.00 | 0.00 | 0.00 | 17 | 1015.6 |
| 20260901163307 | 17 | 219 | 0.0 | 0.0 | 0.00 | 0.00 | 0.00 | 16 | 1015.6 |
| 20260901162807 | 17 | 220 | 0.0 | 0.0 | 0.00 | 0.00 | 0.00 | 16 | 1015.6 |
| 20260901162307 | 17 | 220 | 0.0 | 0.0 | 0.00 | 0.00 | 0.00 | 15 | 1015.6 |
| 20260901161807 | 17 | 219 | 0.0 | 0.0 | 0.00 | 0.00 | 0.00 | 14 | 1015.5 |
| 20260901161307 | 16 | 220 | 0.0 | 0.0 | 0.00 | 0.00 | 0.00 | 13 | 1015.5 |
| 20260901160807 | 16 | 220 | 0.0 | 0.0 | 0.00 | 0.00 | 0.00 | 12 | 1015.4 |
| 20260901160307 | 16 | 220 | 0.0 | 0.0 | 0.00 | 0.00 | 0.00 | 12 | 1015.4 |
| 20260901155807 | 16 | 219 | 0.0 | 0.0 | 0.00 | 0.00 | 0.00 | 11 | 1015.4 |
| 20260901155307 | 15 | 220 | 0.0 | 0.0 | 0.00 | 0.00 | 0.00 | 11 | 1015.3 |
| 20260901154807 | 15 | 220 | 0.0 | 0.0 | 0.00 | 0.00 | 0.00 | 10 | 1015.4 |
| 20260901154307 | 15 | 219 | 0.0 | 0.0 | 0.00 | 0.00 | 0.00 | 10 | 1015.4 |
| 20260901153306 | 15 | 220 | 0.0 | 0.0 | 0.00 | 0.00 | 0.00 | 9 | 1015.5 |
| 20260901152807 | 15 | 220 | 0.0 | 0.0 | 0.00 | 0.00 | 0.00 | 9 | 1015.6 |
| 20260901152307 | 15 | 219 | 0.0 | 0.0 | 0.00 | 0.00 | 0.00 | 9 | 1015.6 |
| 20260901151806 | 15 | 220 | 0.0 | 0.0 | 0.00 | 0.00 | 0.00 | 8 | 1015.5 |
| 20260901151306 | 15 | 220 | 0.0 | 0.0 | 0.00 | 0.00 | 0.00 | 8 | 1015.5 |
| 20260901150806 | 15 | 220 | 0.0 | 0.0 | 0.00 | 0.00 | 0.00 | 8 | 1015.5 |
| 20260901145806 | 15 | 219 | 0.0 | 0.0 | 0.00 | 0.00 | 0.00 | 8 | 1015.6 |
| 20260901145307 | 14 | 220 | 0.0 | 0.0 | 0.00 | 0.00 | 0.00 | 7 | 1015.5 |
| 20260901144806 | 14 | 220 | 0.0 | 0.0 | 0.00 | 0.00 | 0.00 | 7 | 1015.4 |
| 20260901144306 | 14 | 219 | 0.0 | 0.0 | 0.00 | 0.00 | 0.00 | 7 | 1015.4 |
| 20260901143306 | 14 | 220 | 0.0 | 0.0 | 0.00 | 0.00 | 0.00 | 7 | 1015.3 |
| 20260901142806 | 14 | 220 | 0.0 | 0.0 | 0.00 | 0.00 | 0.00 | 7 | 1015.3 |
| 20260901142306 | 14 | 219 | 0.0 | 0.0 | 0.00 | 0.00 | 0.00 | 7 | 1015.3 |
| 20260901141306 | 14 | 220 | 0.0 | 0.0 | 0.00 | 0.00 | 0.00 | 7 | 1015.1 |
| 20260901140806 | 14 | 219 | 0.0 | 0.0 | 0.00 | 0.00 | 0.00 | 7 | 1015.1 |
| 20260901140305 | 14 | 220 | 0.0 | 0.0 | 0.00 | 0.00 | 0.00 | 7 | 1015.0 |
| 20260901135805 | 14 | 220 | 0.0 | 0.0 | 0.00 | 0.00 | 0.00 | 7 | 1015.0 |
| 20260901135306 | 14 | 220 | 0.0 | 0.0 | 0.00 | 0.00 | 0.00 | 7 | 1015.0 |
| 20260901134806 | 14 | 219 | 0.0 | 0.0 | 0.00 | 0.00 | 0.00 | 7 | 1015.1 |
| 20260901133805 | 14 | 220 | 0.0 | 0.0 | 0.00 | 0.00 | 0.00 | 6 | 1015.0 |
| 20260901132806 | 14 | 220 | 0.0 | 0.0 | 0.00 | 0.00 | 0.00 | 6 | 1014.8 |
| 20260901132307 | 14 | 220 | 0.0 | 0.0 | 0.00 | 0.00 | 0.00 | 6 | 1014.8 |
| 20260901131806 | 14 | 220 | 0.0 | 0.0 | 0.00 | 0.00 | 0.00 | 6 | 1014.8 |
| 20260901131305 | 14 | 219 | 0.0 | 0.0 | 0.00 | 0.00 | 0.00 | 6 | 1014.7 |
| 20260901130805 | 14 | 219 | 0.0 | 0.0 | 0.00 | 0.00 | 0.00 | 6 | 1014.6 |
| 20260901130305 | 14 | 220 | 0.0 | 0.0 | 0.00 | 0.00 | 0.00 | 6 | 1014.6 |
| 20260901125805 | 14 | 220 | 0.0 | 0.0 | 0.00 | 0.00 | 0.00 | 6 | 1014.7 |
| 20260901125308 | 14 | 219 | 0.0 | 0.0 | 0.00 | 0.00 | 0.00 | 6 | 1014.7 |
| 20260901124805 | 14 | 220 | 0.0 | 0.0 | 0.00 | 0.00 | 0.00 | 6 | 1014.7 |
| 20260901124305 | 14 | 220 | 0.0 | 0.0 | 0.00 | 0.00 | 0.00 | 6 | 1014.9 |
| 20260901123804 | 14 | 220 | 0.0 | 0.0 | 0.00 | 0.00 | 0.00 | 6 | 1014.8 |
| 20260901123305 | 14 | 219 | 0.0 | 0.0 | 0.00 | 0.00 | 0.00 | 6 | 1014.7 |
| 20260901122804 | 14 | 220 | 0.0 | 0.0 | 0.00 | 0.00 | 0.00 | 6 | 1014.7 |
| 20260901122306 | 14 | 220 | 0.0 | 0.0 | 0.00 | 0.00 | 0.00 | 6 | 1014.7 |
| 20260901121805 | 14 | 219 | 0.0 | 0.0 | 0.00 | 0.00 | 0.00 | 6 | 1014.7 |
| 20260901121305 | 14 | 219 | 0.0 | 0.0 | 0.00 | 0.00 | 0.00 | 6 | 1014.7 |
| 20260901120304 | 14 | 220 | 0.0 | 0.0 | 0.00 | 0.00 | 0.00 | 6 | 1014.6 |
| 20260901115306 | 14 | 220 | 0.0 | 0.0 | 0.00 | 0.00 | 0.00 | 6 | 1014.6 |
| 20260901114804 | 14 | 220 | 0.0 | 0.0 | 0.00 | 0.00 | 0.00 | 6 | 1014.6 |
| 20260901114304 | 14 | 220 | 0.0 | 0.0 | 0.00 | 0.00 | 0.00 | 6 | 1014.6 |
| 20260901113804 | 14 | 219 | 0.0 | 0.0 | 0.00 | 0.00 | 0.00 | 6 | 1014.5 |
| 20260901113304 | 14 | 219 | 0.0 | 0.0 | 0.00 | 0.00 | 0.00 | 6 | 1014.6 |
| 20260901112804 | 14 | 220 | 0.0 | 0.0 | 0.00 | 0.00 | 0.00 | 6 | 1014.6 |
| 20260901112306 | 14 | 220 | 0.0 | 0.0 | 0.00 | 0.00 | 0.00 | 6 | 1014.6 |
| 20260901111804 | 14 | 220 | 0.0 | 0.0 | 0.00 | 0.00 | 0.00 | 6 | 1014.6 |
| 20260901111303 | 14 | 220 | 0.0 | 0.0 | 0.00 | 0.00 | 0.00 | 6 | 1014.6 |
| 20260901110804 | 14 | 220 | 0.0 | 0.0 | 0.00 | 0.00 | 0.00 | 6 | 1014.6 |
| 20260901105804 | 14 | 219 | 0.0 | 0.0 | 0.00 | 0.00 | 0.00 | 6 | 1014.8 |
| 20260901104804 | 14 | 220 | 0.0 | 0.0 | 0.00 | 0.00 | 0.00 | 6 | 1014.8 |